QPF
0.05 0.04 0.03 0.02 0.01 0.01 0.01 0.00 0.00 0.00 0.00 0.00 0.00 0.00 0.00 0.00 0.00 0.00 0.00 0.00 0.00 0.00 0.00 0.00 0.00 0.00 0.00 0.00 0.00 0.00 0.00 0.00 0.00 0.00 0.00 0.00 0.00 0.00 0.00 0.00 0.00 0.00 0.00 0.00
0.03 0.03 0.01 0.01 0.01 0.01 0.01 0.01 0.00 0.00 0.00 0.00 0.00 0.00 0.00 0.00 0.00 0.00 0.00 0.00 0.00 0.00 0.00 0.00 0.00 0.00 0.00 0.00 0.00 0.00 0.00 0.00 0.00 0.00 0.00 0.00 0.00 0.00 0.00 0.00 0.00 0.00 0.01 0.01
0.02 0.01 0.00 0.01 0.01 0.02 0.02 0.01 0.00 0.00 0.00 0.00 0.00 0.00 0.00 0.00 0.00 0.00 0.00 0.00 0.00 0.00 0.00 0.00 0.00 0.00 0.00 0.00 0.00 0.00 0.00 0.00 0.00 0.00 0.00 0.00 0.00 0.00 0.01 0.01 0.01 0.01 0.01 0.01
0.01 0.01 0.01 0.01 0.02 0.02 0.02 0.01 0.00 0.01 0.01 0.01 0.00 0.00 0.00 0.00 0.00 0.00 0.00 0.00 0.00 0.00 0.00 0.00 0.00 0.00 0.00 0.00 0.00 0.00 0.00 0.00 0.00 0.00 0.00 0.00 0.00 0.00 0.00 0.01 0.01 0.01 0.01 0.02
0.02 0.01 0.01 0.01 0.01 0.01 0.01 0.01 0.01 0.01 0.02 0.01 0.00 0.00 0.00 0.00 0.00 0.00 0.00 0.00 0.00 0.00 0.00 0.00 0.00 0.00 0.00 0.00 0.00 0.00 0.00 0.00 0.00 0.00 0.00 0.00 0.00 0.00 0.00 0.01 0.01 0.01 0.01 0.01
0.02 0.01 0.01 0.00 0.00 0.01 0.01 0.02 0.03 0.03 0.04 0.03 0.01 0.00 0.00 0.00 0.00 0.00 0.00 0.00 0.00 0.00 0.00 0.00 0.00 0.00 0.00 0.00 0.00 0.00 0.00 0.00 0.00 0.00 0.00 0.00 0.00 0.00 0.00 0.01 0.01 0.01 0.01 0.01
0.02 0.01 0.01 0.01 0.01 0.02 0.03 0.05 0.08 0.08 0.06 0.03 0.00 0.00 0.00 0.00 0.00 0.00 0.00 0.00 0.00 0.00 0.00 0.00 0.00 0.00 0.00 0.00 0.00 0.00 0.00 0.00 0.00 0.00 0.00 0.00 0.00 0.00 0.01 0.01 0.01 0.01 0.00 0.00
0.01 0.01 0.01 0.00 0.01 0.02 0.03 0.04 0.04 0.03 0.02 0.00 0.00 0.00 0.00 0.00 0.00 0.00 0.00 0.00 0.00 0.00 0.00 0.00 0.00 0.00 0.00 0.00 0.00 0.00 0.00 0.00 0.00 0.00 0.00 0.00 0.00 0.01 0.01 0.01 0.00 0.01 0.00 0.00
0.00 0.00 0.00 0.00 0.00 0.00 0.01 0.02 0.01 0.01 0.00 0.00 0.00 0.00 0.00 0.00 0.00 0.00 0.00 0.00 0.00 0.00 0.00 0.00 0.00 0.00 0.00 0.00 0.00 0.00 0.00 0.00 0.00 0.00 0.00 0.00 0.01 0.01 0.01 0.00 0.00 0.00 0.00 0.00
0.00 0.00 0.00 0.00 0.00 0.01 0.01 0.01 0.02 0.02 0.01 0.00 0.00 0.00 0.00 0.00 0.00 0.00 0.00 0.00 0.00 0.00 0.00 0.00 0.00 0.00 0.00 0.00 0.00 0.00 0.00 0.00 0.00 0.00 0.00 0.00 0.00 0.00 0.00 0.00 0.00 0.00 0.00 0.00
0.00 0.00 0.00 0.00 0.01 0.01 0.01 0.01 0.02 0.02 0.01 0.00 0.00 0.00 0.00 0.00 0.00 0.00 0.00 0.00 0.00 0.00 0.00 0.00 0.00 0.00 0.00 0.00 0.00 0.00 0.00 0.00 0.00 0.00 0.00 0.00 0.00 0.00 0.00 0.00 0.00 0.00 0.00 0.00
0.00 0.00 0.00 0.00 0.00 0.00 0.00 0.01 0.01 0.01 0.00 0.00 0.00 0.00 0.00 0.00 0.00 0.00 0.00 0.00 0.00 0.00 0.00 0.00 0.00 0.00 0.00 0.00 0.00 0.00 0.00 0.00 0.00 0.00 0.00 0.00 0.00 0.00 0.00 0.00 0.00 0.00 0.00 0.00
0.00 0.00 0.00 0.01 0.01 0.00 0.01 0.01 0.00 0.00 0.00 0.00 0.00 0.00 0.00 0.00 0.00 0.00 0.00 0.00 0.00 0.00 0.00 0.00 0.00 0.00 0.00 0.00 0.00 0.00 0.00 0.00 0.00 0.00 0.00 0.00 0.00 0.00 0.00 0.00 0.00 0.00 0.00 0.00
0.00 0.00 0.00 0.00 0.00 0.00 0.00 0.00 0.00 0.00 0.01 0.00 0.00 0.00 0.00 0.00 0.00 0.00 0.00 0.00 0.00 0.00 0.00 0.00 0.00 0.00 0.00 0.00 0.00 0.00 0.00 0.00 0.00 0.00 0.00 0.00 0.00 0.00 0.00 0.00 0.00 0.00 0.00 0.00
0.00 0.00 0.00 0.00 0.00 0.00 0.00 0.00 0.00 0.00 0.00 0.00 0.00 0.00 0.00 0.00 0.00 0.00 0.00 0.00 0.00 0.00 0.00 0.00 0.00 0.00 0.00 0.00 0.00 0.00 0.00 0.00 0.00 0.00 0.00 0.00 0.00 0.00 0.00 0.00 0.00 0.00 0.00 0.00
0.00 0.00 0.00 0.00 0.00 0.00 0.00 0.00 0.00 0.00 0.00 0.00 0.00 0.00 0.00 0.00 0.00 0.00 0.00 0.00 0.00 0.00 0.00 0.00 0.00 0.00 0.00 0.00 0.00 0.00 0.00 0.00 0.00 0.00 0.00 0.00 0.00 0.00 0.00 0.00 0.00 0.00 0.00 0.00
0.00 0.00 0.00 0.00 0.00 0.01 0.01 0.00 0.00 0.00 0.00 0.00 0.00 0.00 0.00 0.00 0.00 0.00 0.00 0.00 0.00 0.00 0.00 0.00 0.00 0.00 0.00 0.00 0.00 0.00 0.00 0.00 0.00 0.00 0.00 0.00 0.00 0.00 0.00 0.00 0.00 0.00 0.00 0.00
0.00 0.00 0.00 0.00 0.01 0.01 0.00 0.00 0.00 0.00 0.00 0.00 0.00 0.00 0.00 0.00 0.00 0.00 0.00 0.00 0.00 0.00 0.00 0.00 0.00 0.00 0.00 0.00 0.00 0.00 0.00 0.00 0.00 0.00 0.00 0.00 0.00 0.00 0.00 0.00 0.00 0.00 0.00 0.00
0.00 0.00 0.01 0.01 0.02 0.01 0.00 0.00 0.00 0.00 0.00 0.00 0.00 0.00 0.00 0.00 0.00 0.00 0.00 0.00 0.00 0.00 0.00 0.00 0.00 0.00 0.00 0.00 0.00 0.00 0.00 0.00 0.00 0.00 0.00 0.00 0.00 0.00 0.00 0.00 0.00 0.00 0.00 0.00
0.00 0.00 0.01 0.02 0.02 0.01 0.00 0.00 0.00 0.00 0.00 0.00 0.00 0.00 0.00 0.00 0.00 0.00 0.00 0.00 0.00 0.00 0.00 0.00 0.00 0.00 0.00 0.00 0.00 0.00 0.00 0.00 0.00 0.00 0.00 0.00 0.00 0.00 0.00 0.00 0.00 0.00 0.00 0.00
0.01 0.01 0.02 0.02 0.01 0.00 0.00 0.00 0.00 0.00 0.00 0.00 0.00 0.00 0.00 0.00 0.00 0.00 0.00 0.00 0.00 0.00 0.00 0.00 0.00 0.00 0.00 0.00 0.00 0.00 0.00 0.00 0.00 0.00 0.00 0.00 0.00 0.00 0.00 0.00 0.00 0.00 0.00 0.00
0.00 0.01 0.01 0.01 0.01 0.00 0.00 0.00 0.00 0.00 0.00 0.00 0.00 0.00 0.00 0.00 0.00 0.00 0.00 0.00 0.00 0.00 0.00 0.00 0.00 0.00 0.00 0.00 0.00 0.00 0.00 0.00 0.00 0.00 0.00 0.00 0.00 0.00 0.00 0.00 0.00 0.00 0.00 0.00
0.00 0.00 0.00 0.00 0.00 0.00 0.00 0.00 0.00 0.00 0.00 0.00 0.00 0.00 0.00 0.00 0.00 0.00 0.00 0.00 0.00 0.00 0.00 0.00 0.00 0.00 0.00 0.00 0.00 0.00 0.00 0.00 0.00 0.00 0.00 0.00 0.00 0.00 0.00 0.00 0.00 0.00 0.00 0.00
0.00 0.00 0.00 0.00 0.00 0.00 0.00 0.00 0.00 0.00 0.00 0.00 0.00 0.00 0.00 0.00 0.00 0.00 0.00 0.00 0.00 0.00 0.00 0.00 0.00 0.00 0.00 0.00 0.00 0.00 0.00 0.00 0.00 0.00 0.00 0.00 0.00 0.00 0.00 0.00 0.00 0.01 0.01 0.01
0.00 0.00 0.00 0.00 0.00 0.00 0.00 0.00 0.00 0.00 0.00 0.00 0.00 0.00 0.00 0.00 0.00 0.00 0.00 0.00 0.00 0.00 0.00 0.00 0.00 0.00 0.00 0.00 0.00 0.00 0.00 0.00 0.00 0.00 0.00 0.00 0.00 0.01 0.01 0.01 0.01 0.01 0.01 0.01
0.01 0.01 0.01 0.01 0.01 0.00 0.00 0.00 0.00 0.00 0.00 0.00 0.00 0.00 0.00 0.00 0.00 0.00 0.00 0.00 0.00 0.00 0.00 0.00 0.00 0.00 0.00 0.00 0.00 0.00 0.00 0.00 0.00 0.00 0.00 0.00 0.00 0.00 0.01 0.01 0.01 0.01 0.01 0.01
MSLP
1016.52 1017.10 1017.55 1017.88 1018.11 1018.27 1018.38 1018.44 1018.49 1018.50 1018.47 1018.39 1018.26 1018.07 1017.84 1017.59 1017.36 1017.19 1017.08 1017.06 1017.12 1017.25 1017.43 1017.64 1017.87 1018.10 1018.33 1018.58 1018.87 1019.20 1019.60 1020.06 1020.56 1021.10 1021.64 1022.16 1022.63 1023.03 1023.36 1023.63 1023.86 1024.06 1024.27 1024.51
1016.50 1016.98 1017.34 1017.60 1017.79 1017.94 1018.07 1018.20 1018.33 1018.42 1018.47 1018.43 1018.31 1018.09 1017.80 1017.48 1017.16 1016.90 1016.71 1016.63 1016.64 1016.74 1016.90 1017.09 1017.28 1017.47 1017.66 1017.87 1018.12 1018.43 1018.83 1019.32 1019.88 1020.48 1021.10 1021.70 1022.22 1022.67 1023.01 1023.27 1023.46 1023.63 1023.79 1023.98
1016.31 1016.71 1017.00 1017.22 1017.40 1017.58 1017.78 1018.00 1018.22 1018.41 1018.51 1018.51 1018.37 1018.10 1017.72 1017.29 1016.85 1016.47 1016.18 1016.02 1015.99 1016.06 1016.20 1016.38 1016.56 1016.73 1016.90 1017.08 1017.31 1017.61 1018.01 1018.51 1019.11 1019.77 1020.45 1021.11 1021.69 1022.18 1022.55 1022.81 1022.99 1023.13 1023.27 1023.43
1015.94 1016.29 1016.54 1016.76 1016.97 1017.23 1017.53 1017.87 1018.20 1018.47 1018.63 1018.63 1018.44 1018.08 1017.58 1017.00 1016.41 1015.89 1015.50 1015.26 1015.17 1015.22 1015.37 1015.56 1015.76 1015.94 1016.11 1016.29 1016.50 1016.79 1017.18 1017.68 1018.29 1018.98 1019.69 1020.39 1021.02 1021.55 1021.95 1022.24 1022.44 1022.59 1022.73 1022.89
1015.41 1015.72 1015.98 1016.24 1016.54 1016.90 1017.33 1017.79 1018.23 1018.58 1018.77 1018.74 1018.48 1017.99 1017.34 1016.59 1015.84 1015.18 1014.68 1014.37 1014.26 1014.31 1014.48 1014.72 1014.97 1015.19 1015.39 1015.58 1015.78 1016.05 1016.41 1016.88 1017.47 1018.14 1018.86 1019.57 1020.23 1020.79 1021.25 1021.59 1021.84 1022.04 1022.22 1022.42
1014.71 1015.02 1015.32 1015.66 1016.07 1016.57 1017.15 1017.74 1018.28 1018.68 1018.86 1018.78 1018.41 1017.79 1016.97 1016.06 1015.15 1014.37 1013.78 1013.43 1013.31 1013.40 1013.64 1013.95 1014.27 1014.56 1014.80 1015.01 1015.21 1015.44 1015.75 1016.16 1016.69 1017.31 1017.99 1018.69 1019.36 1019.97 1020.48 1020.90 1021.24 1021.52 1021.79 1022.06
1013.85 1014.20 1014.57 1015.01 1015.56 1016.20 1016.91 1017.62 1018.23 1018.66 1018.82 1018.66 1018.18 1017.42 1016.45 1015.39 1014.37 1013.50 1012.87 1012.51 1012.43 1012.59 1012.91 1013.33 1013.74 1014.11 1014.41 1014.63 1014.81 1015.00 1015.24 1015.57 1016.00 1016.54 1017.16 1017.83 1018.50 1019.14 1019.72 1020.24 1020.69 1021.09 1021.48 1021.86
1012.87 1013.26 1013.72 1014.28 1014.96 1015.74 1016.57 1017.36 1018.01 1018.44 1018.55 1018.31 1017.73 1016.85 1015.78 1014.63 1013.54 1012.64 1012.01 1011.70 1011.69 1011.95 1012.39 1012.91 1013.43 1013.87 1014.22 1014.46 1014.62 1014.75 1014.90 1015.13 1015.46 1015.90 1016.44 1017.06 1017.73 1018.40 1019.05 1019.67 1020.25 1020.79 1021.32 1021.83
1011.81 1012.27 1012.82 1013.49 1014.29 1015.17 1016.07 1016.91 1017.57 1017.96 1018.02 1017.71 1017.05 1016.10 1014.97 1013.80 1012.72 1011.85 1011.29 1011.07 1011.17 1011.54 1012.09 1012.71 1013.32 1013.84 1014.22 1014.47 1014.60 1014.67 1014.74 1014.86 1015.09 1015.43 1015.89 1016.47 1017.12 1017.82 1018.54 1019.26 1019.96 1020.64 1021.30 1021.94
1010.74 1011.27 1011.91 1012.68 1013.56 1014.50 1015.43 1016.26 1016.89 1017.24 1017.23 1016.87 1016.16 1015.20 1014.09 1012.96 1011.96 1011.20 1010.75 1010.65 1010.87 1011.36 1012.01 1012.73 1013.40 1013.96 1014.37 1014.61 1014.72 1014.74 1014.73 1014.77 1014.91 1015.16 1015.56 1016.09 1016.73 1017.45 1018.22 1019.02 1019.83 1020.62 1021.40 1022.14
1009.76 1010.37 1011.08 1011.91 1012.83 1013.78 1014.69 1015.47 1016.03 1016.30 1016.23 1015.83 1015.14 1014.22 1013.19 1012.18 1011.32 1010.71 1010.42 1010.45 1010.80 1011.38 1012.11 1012.88 1013.59 1014.17 1014.58 1014.82 1014.91 1014.89 1014.85 1014.84 1014.91 1015.12 1015.46 1015.96 1016.58 1017.31 1018.11 1018.97 1019.84 1020.71 1021.55 1022.37
1008.97 1009.65 1010.42 1011.27 1012.18 1013.08 1013.91 1014.60 1015.05 1015.24 1015.12 1014.70 1014.04 1013.21 1012.32 1011.48 1010.80 1010.37 1010.24 1010.41 1010.85 1011.50 1012.27 1013.05 1013.77 1014.35 1014.76 1015.00 1015.08 1015.07 1015.03 1015.01 1015.07 1015.25 1015.57 1016.04 1016.65 1017.37 1018.18 1019.04 1019.94 1020.83 1021.72 1022.56
1008.43 1009.17 1009.97 1010.81 1011.66 1012.47 1013.18 1013.72 1014.05 1014.13 1013.95 1013.54 1012.94 1012.23 1011.50 1010.85 1010.36 1010.11 1010.13 1010.41 1010.92 1011.60 1012.37 1013.14 1013.83 1014.40 1014.81 1015.06 1015.18 1015.21 1015.20 1015.22 1015.31 1015.51 1015.83 1016.29 1016.88 1017.58 1018.36 1019.21 1020.09 1020.97 1021.84 1022.69
1008.16 1008.94 1009.75 1010.55 1011.30 1011.97 1012.51 1012.88 1013.05 1013.02 1012.78 1012.37 1011.84 1011.26 1010.69 1010.23 1009.93 1009.84 1009.98 1010.34 1010.87 1011.55 1012.28 1013.01 1013.67 1014.22 1014.64 1014.93 1015.12 1015.23 1015.31 1015.41 1015.57 1015.82 1016.17 1016.63 1017.20 1017.87 1018.61 1019.41 1020.24 1021.09 1021.92 1022.74
1008.12 1008.93 1009.71 1010.42 1011.04 1011.54 1011.89 1012.07 1012.07 1011.92 1011.62 1011.21 1010.75 1010.28 1009.86 1009.56 1009.42 1009.45 1009.67 1010.06 1010.60 1011.23 1011.91 1012.59 1013.21 1013.76 1014.21 1014.58 1014.86 1015.09 1015.30 1015.52 1015.78 1016.10 1016.50 1016.98 1017.54 1018.18 1018.87 1019.61 1020.39 1021.18 1021.96 1022.74
1008.22 1009.03 1009.75 1010.35 1010.81 1011.12 1011.26 1011.24 1011.08 1010.80 1010.43 1010.03 1009.61 1009.24 1008.95 1008.78 1008.75 1008.87 1009.13 1009.52 1010.03 1010.60 1011.22 1011.85 1012.46 1013.02 1013.53 1013.98 1014.39 1014.77 1015.13 1015.50 1015.88 1016.30 1016.76 1017.27 1017.83 1018.44 1019.09 1019.79 1020.51 1021.25 1022.00 1022.75
1008.33 1009.10 1009.73 1010.20 1010.49 1010.60 1010.54 1010.33 1010.02 1009.63 1009.21 1008.80 1008.43 1008.14 1007.95 1007.87 1007.91 1008.07 1008.35 1008.72 1009.17 1009.69 1010.26 1010.85 1011.45 1012.05 1012.63 1013.21 1013.76 1014.30 1014.82 1015.33 1015.85 1016.36 1016.89 1017.44 1018.02 1018.62 1019.26 1019.92 1020.62 1021.34 1022.06 1022.79
1008.32 1009.02 1009.54 1009.86 1009.97 1009.89 1009.66 1009.29 1008.85 1008.38 1007.93 1007.53 1007.21 1006.99 1006.87 1006.86 1006.95 1007.13 1007.40 1007.74 1008.15 1008.61 1009.14 1009.71 1010.32 1010.97 1011.65 1012.33 1013.03 1013.71 1014.38 1015.03 1015.67 1016.28 1016.88 1017.48 1018.09 1018.71 1019.35 1020.03 1020.72 1021.45 1022.18 1022.91
1008.08 1008.68 1009.07 1009.23 1009.19 1008.96 1008.59 1008.11 1007.60 1007.10 1006.66 1006.29 1006.03 1005.88 1005.82 1005.87 1005.99 1006.18 1006.44 1006.75 1007.12 1007.55 1008.05 1008.62 1009.25 1009.95 1010.71 1011.49 1012.30 1013.10 1013.89 1014.65 1015.38 1016.07 1016.74 1017.39 1018.04 1018.70 1019.39 1020.10 1020.83 1021.59 1022.35 1023.10
1007.58 1008.05 1008.30 1008.33 1008.16 1007.82 1007.37 1006.85 1006.34 1005.86 1005.47 1005.18 1005.00 1004.93 1004.95 1005.04 1005.20 1005.41 1005.65 1005.94 1006.28 1006.69 1007.18 1007.75 1008.41 1009.15 1009.96 1010.81 1011.69 1012.57 1013.42 1014.25 1015.03 1015.78 1016.50 1017.20 1017.90 1018.63 1019.37 1020.14 1020.94 1021.74 1022.54 1023.32
1006.81 1007.15 1007.27 1007.20 1006.95 1006.57 1006.11 1005.62 1005.16 1004.77 1004.48 1004.31 1004.24 1004.27 1004.38 1004.54 1004.74 1004.96 1005.20 1005.49 1005.82 1006.21 1006.69 1007.26 1007.93 1008.68 1009.51 1010.38 1011.28 1012.18 1013.05 1013.89 1014.69 1015.45 1016.20 1016.95 1017.71 1018.49 1019.31 1020.16 1021.02 1021.89 1022.73 1023.54
1005.85 1006.07 1006.09 1005.95 1005.68 1005.32 1004.91 1004.52 1004.19 1003.95 1003.82 1003.79 1003.87 1004.02 1004.22 1004.45 1004.70 1004.95 1005.20 1005.48 1005.81 1006.19 1006.66 1007.22 1007.87 1008.61 1009.42 1010.26 1011.13 1011.99 1012.82 1013.62 1014.40 1015.15 1015.91 1016.68 1017.48 1018.33 1019.22 1020.14 1021.07 1021.99 1022.87 1023.69
1004.81 1004.92 1004.89 1004.73 1004.49 1004.21 1003.93 1003.69 1003.54 1003.49 1003.54 1003.69 1003.92 1004.20 1004.50 1004.80 1005.10 1005.38 1005.65 1005.93 1006.25 1006.63 1007.07 1007.61 1008.23 1008.92 1009.66 1010.44 1011.23 1012.00 1012.75 1013.48 1014.20 1014.91 1015.65 1016.43 1017.26 1018.16 1019.10 1020.08 1021.07 1022.03 1022.93 1023.75
1003.80 1003.85 1003.80 1003.67 1003.52 1003.37 1003.25 1003.21 1003.27 1003.42 1003.67 1004.00 1004.38 1004.78 1005.17 1005.54 1005.87 1006.17 1006.46 1006.74 1007.05 1007.40 1007.83 1008.32 1008.88 1009.51 1010.17 1010.85 1011.53 1012.19 1012.83 1013.47 1014.10 1014.76 1015.46 1016.23 1017.07 1017.99 1018.97 1019.98 1021.00 1021.98 1022.89 1023.69
1002.98 1002.99 1002.96 1002.91 1002.87 1002.88 1002.96 1003.12 1003.39 1003.74 1004.18 1004.66 1005.16 1005.65 1006.11 1006.52 1006.88 1007.19 1007.47 1007.74 1008.03 1008.36 1008.75 1009.19 1009.69 1010.24 1010.81 1011.38 1011.95 1012.50 1013.03 1013.56 1014.11 1014.70 1015.36 1016.09 1016.92 1017.84 1018.82 1019.84 1020.86 1021.84 1022.73 1023.51
1002.46 1002.48 1002.51 1002.56 1002.65 1002.83 1003.08 1003.44 1003.88 1004.41 1004.98 1005.57 1006.15 1006.70 1007.19 1007.61 1007.95 1008.25 1008.50 1008.75 1009.01 1009.31 1009.66 1010.06 1010.50 1010.97 1011.46 1011.94 1012.41 1012.86 1013.30 1013.74 1014.21 1014.74 1015.34 1016.03 1016.83 1017.72 1018.68 1019.67 1020.66 1021.61 1022.47 1023.23
Thickness
5569 5572 5582 5591 5594 5600 5599 5599 5604 5614 5623 5624 5627 5636 5650 5655 5655 5660 5665 5669 5675 5683 5689 5688 5688 5688 5688 5688 5688 5687 5685 5683 5680 5677 5674 5672 5670 5670 5668 5667 5665 5662 5659 5657
5558 5573 5587 5585 5585 5591 5592 5593 5597 5607 5613 5614 5618 5626 5641 5647 5651 5659 5666 5671 5676 5679 5680 5684 5687 5688 5689 5689 5689 5688 5687 5685 5683 5681 5678 5675 5672 5670 5669 5667 5664 5662 5659 5656
5567 5577 5578 5577 5576 5579 5583 5587 5591 5596 5601 5605 5609 5617 5632 5645 5649 5656 5661 5668 5673 5677 5681 5684 5685 5687 5689 5691 5691 5691 5689 5687 5684 5681 5677 5674 5670 5669 5666 5664 5662 5661 5658 5655
5558 5567 5571 5570 5573 5577 5578 5585 5587 5587 5584 5584 5595 5595 5624 5637 5645 5653 5660 5664 5670 5676 5681 5683 5685 5687 5691 5694 5693 5691 5690 5687 5685 5681 5678 5675 5673 5670 5668 5665 5662 5659 5657 5654
5554 5559 5565 5569 5577 5575 5576 5579 5577 5576 5574 5573 5581 5584 5612 5630 5637 5652 5662 5667 5674 5678 5681 5684 5688 5691 5692 5692 5691 5691 5689 5687 5685 5682 5680 5676 5673 5670 5666 5663 5659 5656 5653 5651
5550 5555 5563 5570 5571 5570 5568 5564 5559 5555 5555 5561 5579 5575 5601 5624 5642 5655 5664 5670 5676 5679 5680 5683 5685 5685 5686 5686 5687 5687 5687 5686 5684 5682 5679 5676 5672 5668 5663 5659 5655 5652 5648 5645
5536 5544 5555 5563 5558 5557 5561 5552 5543 5542 5542 5562 5577 5574 5607 5635 5645 5656 5666 5671 5675 5676 5675 5676 5677 5678 5680 5682 5683 5684 5684 5683 5682 5680 5678 5675 5671 5666 5662 5658 5653 5648 5643 5639
5532 5538 5549 5558 5563 5560 5560 5558 5551 5545 5547 5555 5562 5575 5613 5634 5643 5648 5654 5661 5665 5666 5668 5670 5673 5674 5675 5677 5678 5679 5680 5680 5678 5677 5675 5672 5668 5664 5660 5655 5650 5645 5639 5634
5547 5546 5549 5554 5562 5561 5549 5549 5558 5547 5539 5547 5556 5578 5604 5625 5634 5641 5646 5651 5656 5659 5660 5661 5663 5665 5667 5668 5670 5673 5673 5674 5673 5673 5670 5667 5664 5659 5655 5650 5644 5638 5632 5626
5554 5540 5540 5545 5551 5553 5556 5551 5540 5538 5538 5545 5566 5578 5600 5625 5634 5642 5645 5649 5654 5652 5651 5651 5652 5654 5656 5658 5660 5662 5664 5666 5666 5665 5664 5662 5657 5653 5648 5642 5636 5630 5623 5617
5549 5536 5525 5534 5545 5550 5545 5542 5546 5543 5541 5546 5553 5584 5612 5625 5637 5643 5649 5651 5650 5646 5643 5641 5641 5642 5644 5647 5649 5651 5653 5654 5654 5655 5654 5652 5648 5644 5639 5634 5627 5621 5614 5607
5538 5526 5514 5529 5544 5550 5551 5551 5551 5550 5543 5547 5558 5584 5616 5619 5627 5633 5638 5640 5638 5635 5632 5629 5629 5630 5633 5636 5638 5640 5642 5643 5643 5643 5642 5641 5637 5633 5628 5622 5616 5610 5603 5596
5537 5526 5509 5512 5526 5534 5541 5548 5556 5559 5545 5534 5547 5582 5608 5610 5616 5620 5624 5626 5624 5622 5618 5617 5618 5620 5623 5625 5626 5628 5629 5630 5630 5630 5629 5627 5624 5621 5615 5609 5604 5598 5592 5584
5540 5530 5530 5533 5548 5541 5537 5542 5545 5544 5539 5543 5561 5583 5600 5609 5612 5615 5615 5616 5613 5609 5608 5607 5608 5610 5611 5613 5614 5615 5616 5617 5617 5616 5615 5613 5610 5607 5602 5596 5591 5585 5579 5573
5535 5528 5531 5542 5544 5545 5544 5543 5541 5546 5553 5556 5574 5579 5595 5604 5608 5610 5609 5606 5602 5600 5600 5600 5601 5601 5601 5602 5603 5603 5604 5603 5604 5603 5601 5598 5595 5591 5587 5582 5577 5571 5565 5559
5529 5525 5520 5522 5526 5534 5536 5538 5540 5547 5555 5561 5570 5579 5595 5596 5597 5598 5598 5596 5596 5598 5597 5596 5594 5594 5594 5595 5594 5593 5592 5591 5591 5590 5587 5583 5580 5576 5572 5567 5562 5556 5550 5543
5517 5511 5505 5500 5504 5513 5516 5541 5546 5548 5556 5562 5569 5591 5586 5584 5588 5593 5594 5591 5595 5597 5595 5594 5593 5592 5590 5588 5587 5585 5582 5579 5577 5575 5571 5568 5566 5562 5558 5553 5548 5542 5536 5530
5516 5504 5491 5478 5490 5490 5537 5549 5550 5553 5562 5566 5574 5583 5582 5587 5589 5589 5589 5590 5593 5594 5592 5591 5590 5587 5584 5580 5577 5573 5570 5567 5565 5562 5558 5556 5553 5549 5543 5539 5534 5528 5522 5515
5515 5502 5477 5476 5485 5498 5528 5535 5543 5547 5555 5568 5570 5575 5572 5573 5574 5579 5585 5587 5593 5593 5591 5589 5586 5582 5576 5572 5568 5563 5559 5556 5554 5551 5547 5544 5540 5536 5530 5525 5519 5513 5506 5499
5497 5500 5483 5473 5481 5494 5547 5543 5538 5542 5548 5573 5567 5566 5559 5556 5559 5582 5587 5580 5581 5581 5580 5578 5574 5570 5567 5563 5558 5554 5550 5547 5545 5541 5536 5531 5527 5523 5518 5512 5505 5498 5492 5484
5475 5477 5482 5472 5481 5509 5533 5527 5533 5532 5561 5565 5559 5558 5552 5556 5570 5574 5571 5569 5569 5568 5566 5565 5563 5560 5558 5552 5548 5545 5541 5539 5535 5528 5522 5517 5512 5508 5503 5495 5489 5482 5475 5467
5486 5477 5477 5473 5478 5509 5517 5513 5533 5547 5549 5548 5549 5548 5548 5552 5553 5553 5552 5552 5551 5551 5551 5550 5549 5547 5544 5540 5537 5535 5532 5527 5519 5514 5508 5502 5496 5492 5486 5479 5472 5465 5458 5450
5491 5503 5499 5502 5515 5513 5507 5518 5527 5529 5533 5533 5533 5535 5535 5535 5535 5535 5535 5534 5534 5534 5534 5533 5533 5531 5527 5526 5525 5523 5517 5509 5504 5498 5492 5486 5480 5474 5469 5463 5456 5448 5441 5436
5473 5482 5480 5484 5490 5496 5496 5503 5508 5512 5517 5518 5519 5520 5520 5521 5521 5519 5516 5516 5515 5514 5514 5514 5514 5513 5510 5508 5507 5504 5498 5493 5488 5482 5475 5469 5463 5457 5451 5446 5441 5435 5428 5422
5471 5471 5475 5478 5481 5484 5488 5489 5494 5494 5496 5498 5499 5501 5503 5505 5505 5504 5500 5498 5497 5496 5495 5496 5497 5496 5492 5489 5486 5483 5480 5476 5470 5464 5458 5453 5448 5442 5435 5430 5425 5420 5416 5412
5451 5463 5475 5480 5477 5480 5481 5479 5479 5480 5481 5482 5483 5482 5482 5484 5485 5484 5481 5479 5478 5477 5476 5477 5476 5474 5471 5469 5466 5463 5462 5460 5455 5448 5442 5438 5432 5426 5420 5413 5406 5403 5399 5395